HELLAS-SAT 4 & SGS-1

Last updated on Jan. 22, 2020, 4:37 a.m. UTC

1 44034U 19007A   20021.47226542  .00000145  00000-0  00000-0 0  9999
2 44034   0.0722 122.4583 0003260  41.6723 165.1668  1.00272379  3947
UTC
Height (km)
Latitude
Longitude
Inclination
Orbital Period
UTC large
Height (km)
Speed (km/s)
/
Latitude / Longitude
Inclination (degrees)
Orbital Period (minutes)
Azimuth
Elevation
Range (km)
Doppler Factor
iOS Compass Heading
iOS Angle

Next 30 passes for location: Hong Kong

Rise time Rise Azimuth (degrees) Set time Set Azimuth (degrees) Duration Max altitude (degrees)

No matching passes for this satellites